SCP
2 1 1 1 1 1 1 1 1 1 1 1 1 0 0 0 0 1 1 1 1 1 1 1 1 1 1 1 1 0 0 0 0 1 1 0 0 0 0 0 0 0 1 1 1 1 1 1 1
1 1 1 1 1 1 1 1 1 1 1 1 1 0 0 0 0 1 1 1 1 1 1 1 1 1 1 1 1 0 0 0 0 0 0 0 0 0 0 0 0 0 0 0 1 1 1 1 1
1 1 1 1 1 1 1 1 1 1 1 1 0 0 0 0 0 0 1 1 1 1 1 1 1 1 1 1 1 0 0 0 0 0 0 0 0 0 0 0 0 0 0 0 0 0 1 1 1
1 1 1 1 0 0 0 1 1 1 1 1 0 0 0 0 0 0 1 1 1 1 1 1 1 1 1 1 1 1 1 0 0 0 0 0 0 0 0 0 0 0 0 0 0 0 0 1 1
1 1 1 0 0 0 0 0 1 1 1 1 0 0 0 0 0 0 0 1 1 1 1 1 1 1 1 1 1 1 1 1 1 1 0 0 0 0 0 0 0 0 0 0 0 0 0 1 1
1 1 1 0 0 0 0 1 1 1 1 1 1 0 0 0 0 0 0 1 1 1 0 0 0 0 0 0 1 1 1 1 1 1 1 0 0 0 0 0 0 0 0 0 0 0 0 0 1
1 1 0 0 0 0 1 1 1 0 1 1 1 0 1 1 0 0 0 0 0 1 1 0 0 0 0 0 0 1 1 1 1 1 0 0 0 0 0 0 0 0 0 0 0 0 0 0 0
1 1 0 0 0 0 1 1 1 1 1 1 1 1 1 1 1 1 1 1 0 1 1 1 0 0 0 0 0 0 0 0 0 0 0 0 0 0 0 0 0 0 0 0 0 0 0 0 0
1 1 1 0 0 0 0 1 1 1 1 1 1 1 1 1 1 0 0 0 0 0 1 1 0 0 0 0 0 0 0 0 0 0 0 0 0 0 0 0 0 0 0 0 0 0 0 0 0
1 1 1 1 0 0 0 0 0 1 1 1 1 1 1 0 0 0 0 0 0 0 1 1 0 0 0 0 0 0 0 0 0 0 0 0 0 0 0 0 0 0 0 0 0 0 0 0 0
1 1 1 1 1 0 0 0 0 0 1 1 1 1 0 0 0 0 0 0 0 0 0 1 0 0 0 0 0 0 0 0 0 0 0 0 0 0 0 0 0 0 0 0 0 0 0 0 0
1 1 1 1 1 0 0 0 0 0 1 1 1 1 0 0 0 0 0 0 0 0 0 0 0 0 0 0 0 0 0 0 0 0 0 0 0 0 0 0 0 0 0 0 0 0 0 0 0
1 1 1 0 1 1 0 0 0 1 1 1 1 1 0 0 0 0 0 0 0 0 0 0 0 0 0 0 0 0 0 0 0 0 0 0 0 0 0 0 0 0 0 0 0 0 0 0 0
1 1 0 0 1 1 1 0 0 1 1 1 1 1 0 0 1 0 0 0 0 0 0 0 0 0 0 1 1 0 0 0 0 0 0 0 0 0 0 0 0 0 0 0 0 0 0 0 0
0 0 0 0 0 0 0 0 0 1 1 1 1 1 1 1 1 1 1 0 0 0 0 0 0 0 0 0 1 0 0 0 0 0 0 0 0 0 0 0 0 0 0 0 0 0 0 0 0
0 0 0 0 0 0 0 0 0 1 1 1 1 1 1 1 1 1 1 1 0 0 0 0 0 0 0 0 0 0 0 0 0 0 0 0 0 0 0 0 0 0 0 0 0 0 0 0 0
0 0 0 0 0 0 0 0 0 1 1 1 1 1 1 1 1 1 1 1 0 0 0 0 0 0 0 0 0 0 0 0 0 0 0 0 0 0 0 0 0 0 0 0 0 0 0 0 0
0 0 0 0 0 0 0 0 0 1 1 1 1 1 1 1 1 1 1 1 1 0 0 0 0 0 0 0 0 0 0 0 0 0 0 0 0 0 0 0 0 0 0 0 0 0 0 0 0
0 0 0 0 0 0 0 0 0 1 1 1 1 1 1 1 2 2 1 1 1 1 0 0 0 0 0 0 0 0 0 0 0 0 0 0 0 0 0 0 0 0 0 0 0 0 0 0 0
0 0 0 0 0 0 0 0 0 0 1 1 1 1 1 2 2 2 2 1 1 1 0 0 0 0 0 0 0 0 0 0 0 0 0 0 0 0 0 0 0 0 0 0 0 0 0 0 0
0 0 0 0 0 0 0 0 0 0 0 0 1 1 1 1 2 2 2 1 1 1 0 0 0 0 0 0 0 0 0 0 0 0 0 0 0 0 0 0 0 0 0 0 0 0 0 0 0
0 0 0 0 0 0 0 0 0 0 0 0 0 1 1 1 2 2 2 2 1 1 1 0 0 0 0 0 0 0 0 0 0 0 0 0 0 0 0 0 0 0 0 0 0 0 0 0 0
0 0 0 0 0 0 0 0 0 0 0 0 0 1 1 1 2 2 2 2 1 1 1 1 0 0 0 1 1 0 0 0 0 0 0 0 0 0 0 0 0 0 0 0 0 0 0 0 0
0 0 0 0 0 0 0 0 0 0 0 0 0 1 1 1 2 2 2 2 2 1 1 1 1 0 0 1 1 0 0 0 0 0 0 0 0 0 0 0 0 0 0 0 0 0 0 0 0
0 0 0 0 0 0 0 0 0 0 0 0 0 1 1 1 2 2 2 2 2 1 1 1 1 1 1 1 1 1 0 0 0 0 0 0 0 0 0 0 0 0 0 0 0 0 0 0 0
0 0 0 0 0 0 0 0 0 0 0 0 0 1 1 1 2 2 2 2 2 2 1 1 1 1 1 1 1 0 0 0 0 0 0 0 0 0 0 0 0 0 0 0 0 0 0 0 0
0 0 0 0 0 0 0 0 0 0 0 0 1 1 1 1 2 2 2 2 2 2 1 1 1 1 1 1 1 0 0 0 0 0 0 0 0 0 0 0 0 0 0 0 0 0 0 0 0
0 0 0 0 0 0 0 0 0 0 0 0 1 1 1 1 2 2 2 2 2 2 2 1 1 1 1 1 0 0 0 0 0 1 1 0 0 0 0 0 0 0 0 0 0 0 0 0 0
0 0 0 0 0 0 0 0 0 0 0 0 1 1 1 1 2 2 2 2 2 2 2 1 1 1 1 0 0 1 1 1 1 1 1 1 0 0 0 0 0 0 0 0 0 0 0 0 0
0 0 0 0 0 0 0 0 0 0 0 0 1 1 1 1 2 2 2 2 2 2 2 2 1 1 1 0 1 1 1 1 1 1 1 1 0 0 0 0 0 0 0 0 0 0 0 0 0
Wind_Speed
8 8 5 2 2 2 1 4 7 7 7 9 11 11 12 12 9 9 3 7 10 10 10 10 12 12 12 13 13 13 13 13 12 12 11 11 10 10 9 10 10 10 10 9 9 8 8 9 8
9 5 3 3 3 1 3 6 9 9 7 7 11 13 13 12 10 8 4 7 10 11 10 10 12 12 13 13 13 13 13 13 12 11 10 10 10 10 9 9 9 10 9 9 8 7 8 8 8
10 5 3 2 2 2 5 7 8 8 6 7 9 11 9 8 8 5 5 8 11 12 11 11 12 13 13 13 13 13 13 12 11 11 10 10 9 9 9 9 9 9 9 9 8 7 7 8 8
5 3 3 1 3 6 7 6 7 7 7 8 10 10 9 8 6 7 8 10 12 13 12 11 12 12 12 13 12 12 12 11 11 10 9 9 9 9 9 9 8 8 8 8 8 7 7 8 7
3 3 3 1 4 6 6 6 6 7 7 10 12 12 10 8 9 9 8 10 12 12 11 11 13 13 13 12 12 12 12 11 10 9 9 9 9 9 9 8 8 8 8 8 8 7 7 7 7
2 3 2 1 6 7 7 6 7 9 10 11 12 11 8 6 8 7 8 8 10 11 11 11 13 13 13 13 12 11 10 9 9 8 8 8 8 8 8 8 8 8 8 8 7 7 6 6 6
3 3 2 3 6 6 7 7 7 7 9 8 9 10 8 7 5 7 8 8 8 9 10 10 10 11 12 13 12 10 9 8 7 7 7 6 6 6 7 7 8 7 7 7 6 5 4 4 4
2 2 1 3 6 7 7 7 7 8 8 7 8 9 9 8 6 7 8 7 7 7 7 8 9 9 9 8 10 9 8 7 6 6 6 6 6 6 6 7 7 6 6 5 4 3 2 1 1
3 1 1 3 4 6 7 7 7 8 9 9 11 12 13 11 9 7 7 6 5 5 5 6 7 7 7 8 9 8 8 7 6 5 6 5 4 4 4 7 6 4 3 2 1 1 1 2 3
1 1 3 4 5 6 7 6 5 7 9 12 13 14 13 10 8 8 7 7 6 4 5 5 5 5 5 5 6 4 4 4 3 3 4 2 2 3 5 5 4 3 2 2 3 4 5 5 3
2 2 5 6 7 7 6 5 5 8 7 9 12 13 11 9 7 6 6 6 6 5 4 4 5 5 5 3 3 1 2 2 1 2 3 2 3 2 3 2 2 3 3 2 2 3 2 1 1
5 5 5 6 6 5 5 5 6 8 7 8 11 12 10 8 7 6 6 6 6 6 3 3 4 4 5 4 2 2 2 2 2 2 3 3 2 1 2 1 0 0 0 0 1 1 1 2 3
5 6 7 7 6 6 7 7 8 10 9 9 9 10 9 8 7 6 6 6 7 7 4 3 3 4 5 4 1 4 3 3 3 2 2 3 2 2 2 2 2 2 1 1 1 2 3 4 5
6 7 6 5 5 5 6 6 6 8 9 9 9 8 8 7 8 6 7 7 7 7 5 3 4 4 4 4 3 4 3 3 3 2 2 4 3 3 2 2 2 2 2 2 2 3 3 3 4
6 7 5 4 5 5 6 5 6 9 9 8 8 7 8 6 6 6 6 6 7 7 6 4 4 4 6 5 4 3 3 3 3 2 3 4 4 3 3 2 2 2 2 3 3 4 3 3 3
6 4 4 5 5 5 4 4 6 7 8 7 7 6 6 5 5 6 6 6 6 7 7 4 4 5 5 4 4 2 4 3 3 3 3 4 4 5 4 3 2 2 3 3 2 3 3 3 3
5 4 5 6 6 5 4 4 6 6 7 7 7 7 7 5 6 6 6 6 6 7 7 6 5 5 5 4 3 3 4 3 3 3 3 4 5 5 4 3 2 3 3 3 3 3 3 3 3
4 4 4 4 6 5 5 5 7 8 8 7 8 9 9 8 7 7 7 6 5 6 7 7 5 5 4 3 3 3 3 3 3 3 4 5 4 5 4 2 4 4 4 4 4 4 3 2 2
1 3 3 3 4 4 5 5 6 7 7 7 8 9 11 9 8 8 7 6 6 5 7 6 5 4 3 2 2 2 2 2 3 3 5 5 5 5 4 3 4 4 4 4 4 3 3 2 2
2 2 3 3 4 3 4 5 7 8 9 9 8 9 10 10 9 8 7 6 6 6 6 6 5 5 4 2 2 2 2 2 3 3 4 4 5 5 4 4 3 4 3 4 4 4 3 2 3
3 2 3 3 3 3 4 4 6 8 7 7 7 7 9 11 11 10 8 6 5 6 5 5 5 5 4 3 2 3 2 2 2 3 2 3 4 4 4 4 4 3 3 3 4 4 4 3 3
2 3 3 4 4 3 5 2 6 8 8 9 8 8 9 9 11 10 8 7 6 6 5 5 5 5 5 4 3 3 3 2 2 2 2 2 3 3 4 4 4 4 3 3 3 4 3 3 3
2 2 3 5 5 5 6 4 5 10 10 10 9 9 9 9 10 11 10 9 7 6 5 5 5 5 4 4 3 3 2 2 2 2 3 3 3 3 3 3 3 4 3 3 4 4 4 3 3
3 3 4 5 5 5 7 5 4 8 10 10 10 10 9 10 10 10 10 8 7 6 5 5 5 4 4 4 4 4 3 3 4 3 2 2 2 2 2 2 3 3 3 3 3 3 4 3 3
5 3 2 4 4 4 6 5 4 7 8 9 9 10 10 10 10 10 10 9 7 7 6 5 5 4 4 4 4 5 4 3 4 3 2 2 2 2 1 2 3 3 3 3 3 3 3 3 4
6 5 3 2 2 2 3 2 4 7 6 7 8 9 9 10 9 10 10 9 8 8 7 6 6 5 3 3 3 4 4 2 3 2 2 2 2 2 2 3 4 3 3 4 3 3 3 3 4
5 6 6 5 6 3 3 4 6 7 8 7 8 9 10 10 11 10 10 10 9 8 7 6 6 5 4 3 3 3 4 3 3 3 3 2 3 2 2 3 3 3 3 4 4 3 3 3 4
7 5 3 3 3 3 3 4 5 8 8 7 8 8 9 10 11 11 10 10 9 8 6 6 6 6 5 5 4 4 4 3 3 3 3 3 3 3 2 3 3 3 3 3 3 3 2 3 2
8 7 5 3 3 2 1 1 3 7 8 8 8 8 9 9 10 10 9 9 9 8 7 6 6 6 5 5 5 5 4 3 3 3 3 3 3 3 2 3 3 3 3 3 3 3 3 3 3
7 6 5 3 4 3 2 0 3 5 6 7 7 8 8 9 9 10 10 10 9 9 8 7 6 6 5 5 5 5 5 4 3 4 4 4 4 3 3 3 3 3 3 3 3 3 2 3 3
Wind_Direction
276 251 241 247 250 229 66 64 69 68 61 56 59 67 66 52 58 88 117 102 103 102 99 92 90 90 89 89 87 84 84 82 80 78 79 76 74 74 69 65 63 62 59 60 62 59 59 59 57
282 271 256 235 254 217 80 76 73 71 79 78 69 71 72 67 74 91 98 100 104 102 98 92 92 90 89 88 86 85 84 82 80 78 79 77 76 74 70 66 64 63 59 60 62 61 58 57 55
265 259 256 244 298 52 85 76 84 83 74 76 76 59 57 68 73 90 114 109 102 99 97 96 95 95 93 92 90 87 87 86 84 81 80 77 76 74 72 68 65 63 61 60 61 63 58 56 53
258 247 243 238 60 61 91 98 101 99 78 74 86 76 67 60 80 110 116 109 105 102 100 99 98 98 96 93 92 90 90 89 87 84 84 81 78 76 73 70 64 62 61 61 61 60 58 55 49
239 256 245 180 94 84 82 85 86 90 83 79 86 91 82 74 91 107 106 103 106 107 110 108 104 101 99 97 95 93 91 90 92 90 89 86 82 77 70 67 64 61 61 62 61 58 55 52 46
258 253 252 144 102 96 86 80 77 88 93 94 98 98 89 92 96 104 104 104 109 114 115 116 112 106 100 99 99 96 94 94 95 96 96 94 90 85 79 72 65 62 61 62 63 63 56 49 40
277 287 264 125 109 99 95 83 80 90 86 83 96 99 108 104 105 111 105 104 106 114 124 129 126 115 108 105 104 104 104 102 102 106 109 110 108 103 96 83 75 69 68 66 66 68 64 51 30
288 291 278 105 110 100 93 86 80 82 81 81 86 107 121 129 127 113 106 104 105 112 121 128 131 134 128 120 120 124 123 124 131 136 141 144 139 127 112 97 86 78 75 74 74 77 78 56 331
278 278 66 79 102 105 107 95 79 77 84 77 78 97 117 129 127 117 111 110 108 109 114 114 120 126 130 133 137 149 148 154 159 166 175 177 179 151 121 101 109 102 97 106 133 194 205 233 254
196 31 62 63 97 104 98 94 100 98 95 93 94 103 121 131 132 127 128 123 117 114 109 118 121 121 117 114 140 163 148 157 184 165 160 190 111 94 103 121 137 150 161 205 231 238 245 237 230
90 91 75 69 83 96 100 96 85 104 100 113 123 129 132 133 128 125 126 124 122 110 98 114 117 117 122 111 109 106 112 141 119 71 105 93 88 111 117 145 172 197 189 223 233 243 246 209 125
98 90 85 88 85 94 93 92 85 85 97 110 121 129 131 132 130 132 124 121 112 104 93 89 101 108 103 99 108 102 71 73 62 29 68 76 65 65 75 92 80 101 127 64 313 312 16 32 59
107 104 96 94 96 96 92 87 87 94 106 111 121 132 137 139 135 132 134 128 122 114 101 78 81 98 100 90 76 84 61 44 69 25 47 82 70 67 58 61 25 18 16 22 3 30 39 33 37
110 105 104 111 108 109 107 106 109 115 118 127 137 138 140 144 145 149 143 132 121 117 115 97 77 67 89 89 72 71 79 67 54 16 40 75 65 69 48 55 44 25 7 11 30 47 38 51 50
127 127 124 138 137 128 109 110 127 131 134 139 142 144 144 148 151 149 134 132 129 125 111 89 89 78 73 68 56 65 65 68 55 24 26 67 66 62 57 39 38 23 15 29 36 35 31 55 56
168 164 153 154 150 150 143 135 136 143 147 146 151 151 147 149 148 133 131 132 127 121 113 100 87 85 81 73 58 58 62 56 54 35 21 48 63 65 47 30 25 33 28 30 44 40 32 42 44
192 188 162 156 172 170 161 143 148 163 163 162 163 158 154 154 151 142 136 129 123 122 125 121 99 88 86 89 80 56 67 54 51 41 24 32 46 58 57 28 17 40 33 23 38 49 36 44 37
192 178 160 166 165 164 154 156 167 179 181 177 176 168 165 167 161 146 137 133 131 128 126 116 110 105 106 87 78 65 55 59 57 50 40 33 32 46 51 47 37 41 35 23 35 39 35 41 15
229 155 148 147 151 161 161 171 179 181 189 194 191 177 166 160 152 142 143 147 144 133 123 122 123 116 103 92 94 85 72 67 60 55 46 41 37 29 51 45 44 44 42 31 36 36 27 20 39
234 157 150 143 161 174 176 186 189 190 197 198 197 179 163 155 150 148 153 154 146 132 128 130 120 108 95 81 93 103 92 86 84 59 44 43 42 25 42 51 54 52 46 31 33 38 23 10 30
208 182 177 169 162 199 198 209 195 185 192 193 202 179 165 163 157 158 160 149 138 139 136 134 130 123 117 110 86 88 72 64 87 90 64 48 55 39 28 39 52 52 57 41 37 35 35 18 1
221 183 196 200 197 213 211 216 205 185 189 195 194 179 169 166 155 156 156 150 151 146 142 141 132 130 134 132 124 124 123 115 104 108 113 93 71 60 37 37 47 54 59 56 40 42 34 35 10
207 206 227 228 232 246 227 222 199 181 187 190 186 180 168 164 158 158 159 158 160 152 149 141 136 139 134 128 121 123 121 121 107 102 102 92 76 70 56 36 44 54 56 57 56 50 41 41 29
187 211 235 235 243 246 230 221 189 184 187 186 182 176 170 165 159 158 156 154 154 144 142 139 139 131 139 153 147 137 128 118 109 96 102 99 86 71 69 55 56 59 54 56 53 54 51 45 39
209 210 224 215 215 226 205 210 176 166 175 178 176 175 171 163 159 156 152 151 151 147 147 147 143 147 163 163 148 135 135 132 125 124 106 99 92 74 66 66 63 59 52 60 54 50 49 46 42
220 225 248 266 239 223 202 203 129 139 145 158 165 165 162 159 156 153 153 154 155 155 158 158 154 157 159 154 140 135 138 131 116 114 115 106 99 91 69 73 72 63 55 62 57 55 42 47 45
225 231 244 267 279 256 198 143 124 135 144 156 161 162 163 161 157 157 155 157 158 158 162 164 159 157 162 159 132 123 129 121 129 134 111 105 102 100 90 91 87 71 61 59 57 59 46 47 40
235 256 270 265 287 275 219 180 157 158 163 165 166 165 164 164 160 159 160 161 160 156 161 166 163 161 166 157 145 129 123 122 128 122 116 112 109 102 100 90 90 75 69 74 60 58 40 55 53
213 226 244 263 264 280 295 34 121 152 160 166 168 164 166 166 163 161 160 158 156 155 164 167 163 163 160 152 143 140 134 126 131 124 119 114 112 115 112 104 101 89 75 74 71 66 52 49 45
232 234 231 244 266 256 262 158 110 136 149 157 162 161 165 163 160 158 157 156 159 161 167 170 168 163 155 151 145 142 134 134 146 129 124 122 125 130 120 112 109 105 91 77 70 68 55 59 53